Preview of NWS' New Version of Forecast
This preview is not operational and should not be used for support decisions.

Regional Weather Roundup (RWR)

Issued by National Weather Service (NWS)

                            
000
ASUS43 KLSX 190407
RWRMO 

WEATHER SUMMARY FOR MISSOURI
NATIONAL WEATHER SERVICE SPRINGFIELD MO
1100 PM CDT SAT MAY 18 2019

NOTE: "FAIR" INDICATES FEW OR NO CLOUDS BELOW 12,000 FEET WITH NO
       SIGNIFICANT WEATHER AND/OR OBSTRUCTIONS TO VISIBILITY.
       CURRENT SKY AND/OR WEATHER CONDITIONS ARE NOT AVAILABLE FOR
       CHILLICOTHE AND FARMINGTON.

MOZ001>031-035>038-043-044-053-054-190500-
...NORTHERN AND WESTERN MISSOURI...
  
CITY           SKY/WX    TMP DP  RH WIND       PRES   REMARKS
KANSAS CTY INT MOCLDY    60  59  96 NW5       29.61R                  
KANSAS C DTWN  PTCLDY    63  60  90 SW5       29.59F                  
LEE'S SUMMIT   CLOUDY    62  60  93 S10       29.62S                  
ST JOSEPH      MOCLDY    61  60  97 CALM      29.61S                  
CHILLICOTHE      N/A     65  62  90 SW3       29.62R                  
KIRKSVILLE     CLOUDY    64  63  96 S14G28    29.61R                  
     
$$
MOZ066>068-077>081-088>096-101>105-190500-
...SOUTHWEST MISSOURI...
  
CITY           SKY/WX    TMP DP  RH WIND       PRES   REMARKS
SPRINGFIELD    CLOUDY    63  58  83 S10       29.68R                  
JOPLIN         CLOUDY    63  60  90 S14       29.64S                  
BRANSON        CLOUDY    63  59  88 S8        29.71S                  
               
$$
MOZ032>034-039>042-045>050-055>058-069>072-190500-
...CENTRAL MISSOURI...  
  
CITY           SKY/WX    TMP DP  RH WIND       PRES   REMARKS
COLUMBIA       CLOUDY    63  61  93 S7        29.66R                  
JEFFERSON CITY CLOUDY    64  61  90 SE5       29.66R                  
ROLLA          CLOUDY    62  58  86 SE13      29.64F                  
SEDALIA        MOCLDY    59  59 100 S8        29.66R                  
WHITEMAN AFB   PTCLDY    63  63 100 VRB6      29.59S                  
WARRENSBURG    CLOUDY    61  61 100 SE5       29.62F                  
OSAGE BEACH    CLOUDY    62  61  96 S5        29.67F                  
               
$$
MOZ051-052-059>065-190500-
...EAST CENTRAL MISSOURI...
  
CITY           SKY/WX    TMP DP  RH WIND       PRES   REMARKS
ST LOUIS INTL  LGT RAIN  70  61  73 S13G23    29.68F                  
SPIRIT OF STL  CLOUDY    68  63  84 SE10G18   29.66F                  
ST CHARLES     PTCLDY    69  63  81 SE15      29.66F                  
                   
$$
MOZ072>076-082>087-097>100-106>115-190500-
...SOUTH CENTRAL AND SOUTHEAST MISSOURI...
  
CITY           SKY/WX    TMP DP  RH WIND       PRES   REMARKS
CAPE GIRARDEAU LGT RAIN  70  66  87 S10       29.79S                  
FARMINGTON     LGT RAIN  65  62  90 S8        29.76F                  
POPLAR BLUFF   CLOUDY    67  67 100 S10       29.83R                  
WEST PLAINS    CLOUDY    64  59  83 VRB7G28   29.75R                  
                                       
$$